Location: Killam
(52.7910°N, 111.8608°W)
Time: 11:12:11
(UTC+00:00)

SR - Pass Details

Date: 17 February 2026
Orbit: 573 x 848 km, 66.7° (Epoch: 7 March)

Event Time Altitude Azimuth Distance (km) Brightness Sun altitude
Exits shadow 13:45:39 - 251° (WSW) 2,047 ? -8.8°
Reaches altitude 10° 13:46:00 10° 252° (WSW) 1,922 ? -8.7°
Maximum altitude 13:50:02 38° 322° (NW) 940 ? -8.1°
Drops below altitude 10° 13:54:20 10° 31° (NNE) 2,048 ? -7.5°
Sets 13:56:51 0° 40° (NE) 3,009 ? -7.1°
